Location: *
(50.3194°N, 7.1067°E)
Time: 12:33:21
(UTC+00:00)

Meteor 2-9 Rocket - Pass Details

Date: 22 September 2019
Orbit: 791 x 896 km, 81.3° (Epoch: 19 October)

Event Time Altitude Azimuth Distance (km) Brightness Sun altitude
Rises 18:08:46 0° 194° (SSW) 3,459 7.5 -6.9°
Reaches altitude 10° 18:11:13 10° 196° (SSW) 2,512 6.8 -7.3°
Maximum altitude 18:16:56 78° 283° (WNW) 879 4.5 -8.2°
Drops below altitude 10° 18:22:32 10° 10° (N) 2,459 6.7 -9.1°
Sets 18:24:56 0° 12° (NNE) 3,382 7.3 -9.4°
